Simultaneous Nadir Overpasses (SNOs) Predictions

Prediction of SNOs between NOAA-20 and METOP-C Satellite Orbit:

Table of predicted SNOs for the next 14.0 days since TLE Epoch: 3/1/2025
Index Date (NOAA-20) Time (NOAA-20) Lat,Lon (NOAA-20) SZA (NOAA-20 ) Date (METOP-C) Time (METOP-C) Lat,Lon (METOP-C) SZA (METOP-C ) Distance(km) Time Diff (sec)
1 03/14/2025 09:10:19 73.27, 32.73 75.92 03/14/2025 09:11:26 73.25, 35.20 75.74 79.10 67
2 03/14/2025 10:01:02 -73.24,-159.88 104.14 03/14/2025 10:02:10 -73.17,-157.65 104.34 72.08 68
3 03/14/2025 10:51:43 72.98, 7.99 75.57 03/14/2025 10:52:54 72.91, 9.14 75.42 38.26 71
4 03/14/2025 11:42:25 -72.95, 175.38 104.49 03/14/2025 11:43:36 -72.89, 176.41 104.62 34.36 71
5 03/14/2025 12:33:06 72.69, -16.76 75.22 03/14/2025 12:34:19 72.68, -16.68 75.19 2.91 73
6 03/14/2025 13:23:49 -72.66, 150.62 104.84 03/14/2025 13:25:02 -72.66, 150.60 104.85 0.89 73
7 03/14/2025 14:14:35 72.65, -42.05 75.14 03/14/2025 14:15:41 72.65, -42.08 75.14 1.08 66
8 03/14/2025 15:05:19 -72.67, 125.23 104.86 03/14/2025 15:06:23 -72.68, 125.30 104.86 3.17 64
9 03/14/2025 15:56:05 72.66, -67.45 75.13 03/14/2025 15:57:02 72.68, -67.37 75.13 3.43 57
10 03/14/2025 16:46:49 -72.68, 99.83 104.87 03/14/2025 16:47:45 -72.65, 99.91 104.91 3.41 56
11 03/14/2025 17:37:35 72.67, -92.84 75.11 03/14/2025 17:38:24 72.65, -92.77 75.08 3.25 49
12 03/14/2025 18:28:18 -72.63, 74.54 104.95 03/14/2025 18:29:07 -72.63, 74.51 104.96 1.43 49
13 03/14/2025 19:19:04 72.63,-118.13 75.04 03/14/2025 19:19:46 72.62,-118.16 75.02 1.22 42
14 03/14/2025 20:09:48 -72.64, 49.15 104.96 03/14/2025 20:10:28 -72.65, 49.22 104.97 2.32 40
15 03/14/2025 21:00:34 72.64,-143.53 75.02 03/14/2025 21:01:07 72.64,-143.46 75.01 2.43 33
16 03/14/2025 21:51:17 -72.60, 23.86 105.04 03/14/2025 21:51:50 -72.62, 23.82 105.03 2.25 33
17 03/14/2025 22:42:03 72.60,-168.82 74.95 03/14/2025 22:42:29 72.61,-168.85 74.96 2.46 26
18 03/14/2025 23:32:47 -72.61, -1.54 105.05 03/14/2025 23:33:12 -72.59, -1.58 105.08 2.73 25
19 03/15/2025 00:23:33 72.61, 165.79 74.93 03/15/2025 00:23:51 72.59, 165.75 74.91 2.52 18
20 03/15/2025 01:14:17 -72.62, -26.93 105.07 03/15/2025 01:14:33 -72.61, -26.87 105.09 2.20 16
21 03/15/2025 02:05:03 72.62, 140.39 74.91 03/15/2025 02:05:12 72.61, 140.45 74.90 2.14 9
22 03/15/2025 02:55:46 -72.58, -52.22 105.14 03/15/2025 02:55:55 -72.59, -52.27 105.14 1.60 9



Historial Predications of SNOs between NOAA-20 and METOP-C
